Regional Weather Roundup
Issued by NWS Albany, NY

Home | Current Version | Previous Version | Text Only | Print | Product List | Glossary On
Versions: 1 2 3 4 5 6 7 8 9 10 11 12 13 14 15 16 17 18 19 20 21 22 23 24 25 26 27 28 29 30 31 32 33 34 35 36 37 38 39 40 41 42 43 44 45 46 47 48 49 50
000
ASUS41 KALY 191210
RWRALY

NEW YORK STATE HOURLY WEATHER ROUNDUP
NATIONAL WEATHER SERVICE ALBANY NY
800 AM EDT TUE SEP 19 2017

NOTE: "FAIR" INDICATES FEW OR NO CLOUDS BELOW 12,000 FEET WITH NO
SIGNIFICANT WEATHER AND/OR NO OBSTRUCTIONS TO VISIBILITY.

NYZ032-033-038>043-046>054-057>066-NYZ062>081-082-084-191300-
EAST


CITY           SKY/WX    TMP DP  RH WIND       PRES   REMARKS
ALBANY         FOG       61  60  97 NW5       30.12S VSB 1/2
GLENS FALLS    MOSUNNY   60  59  96 CALM      30.12S
POUGHKEEPSIE   CLOUDY    66  62  87 N6        30.06S
MONTGOMERY     CLOUDY    66  64  93 N9        30.07S
WHITE PLAINS   PTSUNNY   69  64  84 N12       30.02F
ISLIP          CLOUDY    69  66  90 NE20      29.99F
NEW YORK CITY  CLOUDY    71  66  84 NE16      30.00F
CENTRAL PARK   CLOUDY    72  65  78 NE10      30.03F
$$

NYZ005>009-017-018-044>046-055-056-191300-
CENTRAL


CITY           SKY/WX    TMP DP  RH WIND       PRES   REMARKS
FULTON         SUNNY     65  63  93 VRB6      30.08R
SYRACUSE       MOSUNNY   63  62  97 E3        30.08R
ROME           CLOUDY    64  62  93 E6        30.11F
ELMIRA         CLOUDY    59  59 100 S3        30.08F FOG
BINGHAMTON     MOSUNNY   59  59 100 E3        30.11S
MONTICELLO     CLOUDY    63  61  93 NE6       30.12S
$$

NYZ026>034-041>043-087-191300-
NORTH


CITY           SKY/WX    TMP DP  RH WIND       PRES   REMARKS
WATERTOWN      SUNNY     66  64  93 CALM      30.06S
FORT DRUM      NOT AVBL
OGDENSBURG     FAIR      65  64  95 CALM      30.07S
MASSENA        MOSUNNY   63  62  97 CALM      30.09R
SARANAC LAKE   MOSUNNY   59  59 100 CALM      30.13S FOG
PLATTSBURGH    SUNNY     67  62  84 S6        30.11R
$$

NYZ001>004-010>016-019>021-085-191300-
WEST


CITY           SKY/WX    TMP DP  RH WIND       PRES   REMARKS
NIAGARA FALLS  CLOUDY    68  64  87 SE5       30.03S FOG
BUFFALO        CLOUDY    66  64  93 SE6       30.05R
DUNKIRK        CLOUDY    67  64  90 S3        30.04R
JAMESTOWN      PTCLDY    62  61  96 S6        30.09S FOG
WELLSVILLE     CLOUDY    62  59  90 S5        30.12S FOG
ROCHESTER      MOSUNNY   65  64  97 S5        30.05S
PENN YAN       SUNNY     64  60  87 SW3       30.09R
$$

             KEY
       WCI = WIND CHILL INDEX
       VSB = VISIBILITY
       HX  = HEAT INDEX
$$



USA.gov is the U.S. government's official web portal to all federal, state and local government web resources and services.